Weather History for KHYR - December, 2013

Change the Weather History Date:

Sunday, December 8, 2013

  Actual Average Record
Temperature  
Mean Temperature -6 °F -  
Max Temperature 8 °F 30 °F 45 °F (1999)
Min Temperature -20 °F 12 °F -20 °F (2013)
Degree Days  
Heating Degree Days 71    
Moisture  
Dew Point -4 °F    
Average Humidity 78    
Maximum Humidity 84    
Minimum Humidity 70    
Precipitation  
Precipitation 0.00 in - - ()
Sea Level Pressure  
Sea Level Pressure 30.27 in    
Wind  
Wind Speed 1 mph (ESE)    
Max Wind Speed 6 mph    
Max Gust Speed -    
Visibility 4 miles    
Events Snow    
Averages and records for this station are not official NWS values.
T = Trace of Precipitation, MM = Missing Value Source: NWS Daily Summary

Daily Weather History Graph

Daily Weather History Graph

Search for Another Location

Airport or City:

Trip Planner

Search our weather history database for the weather conditions in past years. The results will help you decide how hot, cold, wet, or windy it might be!

Date:

Astronomy

Dec. 08, 2013 Rise Set
Actual Time 7:35 AM CST 4:20 PM CST
Civil Twilight 7:00 AM CST 4:54 PM CST
Nautical Twilight 6:23 AM CST 5:32 PM CST
Astronomical Twilight 5:46 AM CST 6:08 PM CST
Moon 11:40 AM CST (12/8) 11:27 PM CST (12/8)
Length of Visible Light 9h 53m
Length of Day
8h 45m
Waxing Crescent, 40% of the Moon is Illuminated
Dec 8
Waxing Crescent
Dec 9
First Quarter
Dec 17
Full
Dec 25
Last Quarter
Jan 1
New

Hourly Weather History & Observations

Time (CST) Temp. Windchill Dew Point Humidity Pressure Visibility Wind Dir Wind Speed Gust Speed Precip Events Conditions
12:53 AM -20.9 °F - -27.9 °F 70% 30.62 in 10.0 mi Calm Calm - N/A   Clear
1:53 AM -20.0 °F - -27.0 °F 70% 30.62 in 10.0 mi Calm Calm - N/A   Clear
2:53 AM -20.9 °F - -26.0 °F 77% 30.60 in 10.0 mi Calm Calm - N/A   Clear
3:53 AM -18.9 °F - -25.1 °F 74% 30.58 in 10.0 mi Calm Calm - N/A   Clear
4:53 AM -16.1 °F - -23.1 °F 71% 30.56 in 10.0 mi Calm Calm - N/A   Clear
5:53 AM -14.1 °F - -20.0 °F 75% 30.54 in 10.0 mi Calm Calm - N/A   Mostly Cloudy
6:53 AM -11.0 °F - -17.0 °F 75% 30.53 in 10.0 mi Calm Calm - N/A   Overcast
7:53 AM -9.0 °F - -14.1 °F 79% 30.51 in 6.0 mi Calm Calm - N/A   Haze
8:08 AM -7.6 °F - -13.0 °F 77% 30.37 in 1.8 mi Calm Calm - 0.00 in Snow Light Snow
8:23 AM -7.6 °F - -11.2 °F 84% 30.36 in 2.5 mi Calm Calm - 0.00 in Snow Light Snow
8:34 AM -5.8 °F - -11.2 °F 77% 30.36 in 3.0 mi Calm Calm - 0.00 in Snow Light Snow
8:43 AM -5.8 °F - -11.2 °F 77% 30.36 in 2.5 mi Calm Calm - 0.00 in Snow Light Snow
8:53 AM -5.1 °F -13.6 °F -11.0 °F 76% 30.50 in 2.0 mi SE 3.5 mph - 0.00 in Snow Light Snow
9:14 AM -5.8 °F -14.5 °F -9.4 °F 84% 30.36 in 1.8 mi SE 3.5 mph - 0.00 in Snow Light Snow
9:22 AM -4.0 °F -12.4 °F -9.4 °F 78% 30.36 in 2.0 mi ESE 3.5 mph - 0.00 in Snow Light Snow
9:50 AM -2.2 °F -10.4 °F -7.6 °F 78% 30.35 in 3.0 mi Variable 3.5 mph - 0.00 in Snow Light Snow
9:53 AM -2.9 °F -11.2 °F -8.0 °F 79% 30.48 in 2.5 mi Variable 3.5 mph - 0.00 in Snow Light Snow
10:13 AM -2.2 °F - -7.6 °F 78% 30.34 in 1.8 mi Calm Calm - 0.00 in Snow Light Snow
10:20 AM -2.2 °F - -7.6 °F 78% 30.33 in 2.0 mi Calm Calm - 0.00 in Snow Light Snow
10:31 AM -0.4 °F -8.3 °F -7.6 °F 72% 30.33 in 1.8 mi East 3.5 mph - 0.00 in Snow Light Snow
10:43 AM -0.4 °F - -7.6 °F 72% 30.32 in 2.0 mi Calm Calm - 0.00 in Snow Light Snow
10:48 AM -0.4 °F - -5.8 °F 78% 30.32 in 1.8 mi Calm Calm - 0.00 in Snow Light Snow
10:53 AM -0.9 °F - -6.0 °F 79% 30.45 in 1.8 mi Calm Calm - 0.00 in Snow Light Snow
11:06 AM 1.4 °F -6.2 °F -5.8 °F 72% 30.31 in 2.0 mi East 3.5 mph - 0.00 in Snow Light Snow
11:23 AM 1.4 °F -6.2 °F -5.8 °F 72% 30.30 in 3.0 mi Variable 3.5 mph - 0.00 in Snow Light Snow
11:30 AM 1.4 °F - -4.0 °F 78% 30.29 in 2.0 mi Calm Calm - 0.00 in Snow Light Snow
11:43 AM 1.4 °F - -4.0 °F 78% 30.28 in 1.8 mi Calm Calm - 0.00 in Snow Light Snow
11:53 AM 1.9 °F - -2.9 °F 80% 30.41 in 1.5 mi Calm Calm - 0.00 in Snow Light Snow
12:00 PM 3.2 °F -7.8 °F -2.2 °F 78% 30.28 in 1.5 mi ESE 5.8 mph - 0.00 in Snow Light Snow
12:44 PM 5.0 °F -5.6 °F -0.4 °F 78% 30.24 in 2.5 mi ESE 5.8 mph - 0.00 in Snow Light Snow
12:53 PM 5.0 °F -2.1 °F -0.9 °F 76% 30.36 in 2.5 mi East 3.5 mph - 0.00 in Snow Light Snow
1:00 PM 5.0 °F -4.1 °F -0.4 °F 78% 30.23 in 4.0 mi East 4.6 mph - 0.00 in Snow Light Snow
1:12 PM 6.8 °F - -0.4 °F 72% 30.22 in 3.0 mi Calm Calm - 0.00 in Snow Light Snow
1:31 PM 6.8 °F -3.5 °F -0.4 °F 72% 30.21 in 1.8 mi East 5.8 mph - 0.00 in Snow Light Snow
1:53 PM 6.1 °F -0.9 °F -0.0 °F 76% 30.32 in 1.2 mi East 3.5 mph - 0.00 in Snow Light Snow
2:22 PM 6.8 °F -2.0 °F 1.4 °F 79% 30.18 in 2.0 mi ESE 4.6 mph - 0.00 in Snow Light Snow
2:53 PM 7.0 °F 0.1 °F 1.0 °F 77% 30.29 in 3.0 mi Variable 3.5 mph - 0.00 in Snow Light Snow
3:02 PM 6.8 °F -2.0 °F 1.4 °F 79% 30.17 in 2.0 mi East 4.6 mph - 0.00 in Snow Light Snow
3:22 PM 6.8 °F -2.0 °F 1.4 °F 79% 30.16 in 2.5 mi ESE 4.6 mph - 0.00 in Snow Light Snow
3:53 PM 7.0 °F 0.1 °F 1.9 °F 80% 30.27 in 2.5 mi ESE 3.5 mph - 0.00 in Snow Light Snow
4:00 PM 6.8 °F - 1.4 °F 79% 30.14 in 6.0 mi Calm Calm - 0.00 in Snow Light Snow
4:53 PM 7.0 °F 0.1 °F 1.9 °F 80% 30.23 in 6.0 mi ENE 3.5 mph - 0.00 in   Haze
5:44 PM 8.6 °F 0.1 °F 3.2 °F 79% 30.10 in 2.5 mi Variable 4.6 mph - 0.00 in Snow Light Snow
5:50 PM 8.6 °F 2.0 °F 3.2 °F 79% 30.10 in 3.0 mi ESE 3.5 mph - 0.00 in Snow Light Snow
5:53 PM 8.1 °F 1.4 °F 3.0 °F 80% 30.21 in 3.0 mi ESE 3.5 mph - 0.00 in Snow Light Snow
5:59 PM 8.6 °F 0.1 °F 3.2 °F 79% 30.10 in 1.8 mi Variable 4.6 mph - 0.00 in Snow Light Snow
6:24 PM 8.6 °F 0.1 °F 3.2 °F 79% 30.09 in 2.0 mi ESE 4.6 mph - 0.00 in Snow Light Snow
6:49 PM 8.6 °F 2.0 °F 3.2 °F 79% 30.08 in 4.0 mi ESE 3.5 mph - 0.00 in Snow Light Snow
6:53 PM 8.1 °F - 3.0 °F 80% 30.19 in 2.5 mi Calm Calm - 0.00 in Snow Light Snow
7:04 PM 8.6 °F - 3.2 °F 79% 30.08 in 3.0 mi Calm Calm - 0.00 in Snow Light Snow
7:17 PM 8.6 °F 2.0 °F 3.2 °F 79% 30.07 in 2.5 mi Variable 3.5 mph - 0.00 in Snow Light Snow
7:30 PM 8.6 °F - 3.2 °F 79% 30.07 in 1.5 mi Calm Calm - 0.00 in Snow Light Snow
7:41 PM 8.6 °F - 3.2 °F 79% 30.06 in 2.5 mi Calm Calm - 0.00 in Snow Light Snow
7:50 PM 8.6 °F - 3.2 °F 79% 30.05 in 3.0 mi Calm Calm - 0.00 in Snow Light Snow
7:53 PM 8.1 °F 1.4 °F 3.0 °F 80% 30.16 in 4.0 mi ESE 3.5 mph - 0.00 in Snow Light Snow
8:23 PM 8.6 °F 0.1 °F 3.2 °F 79% 30.04 in 2.0 mi East 4.6 mph - 0.00 in Snow Light Snow
8:45 PM 8.6 °F 2.0 °F 3.2 °F 79% 30.03 in 4.0 mi ESE 3.5 mph - 0.00 in Snow Light Snow
8:53 PM 8.1 °F - 3.0 °F 80% 30.12 in 6.0 mi Calm Calm - 0.00 in Snow Light Snow
9:53 PM 8.1 °F - 3.0 °F 80% 30.11 in 4.0 mi Calm Calm - 0.00 in Snow Light Snow
10:53 PM 8.1 °F - 3.9 °F 83% 30.09 in 4.0 mi Calm Calm - 0.00 in Snow Light Snow
11:17 PM 8.6 °F - 3.2 °F 79% 29.97 in 2.5 mi Calm Calm - 0.00 in Snow Light Snow
11:53 PM 8.1 °F - 3.9 °F 83% 30.06 in 3.0 mi Calm Calm - 0.00 in Snow Light Snow